Marathon, FL

2:45 PM EDT on October 20, 2017 (GMT -0400)
Florida Keys Marathon

Weather History for KMTH - January, 2014

Change the Weather History Date:

Monday, January 6, 2014

  Actual Average Record
Temperature  
Mean Temperature 71 °F 69 °F  
Max Temperature 83 °F 75 °F 84 °F (2013)
Min Temperature 59 °F 64 °F 47 °F (2012)
Degree Days  
Heating Degree Days 0 2  
Month to date heating degree days 0 10  
Since 1 July heating degree days 1 31  
Cooling Degree Days 6 6  
Month to date cooling degree days 55 36  
Year to date cooling degree days 55 36  
Growing Degree Days 22 (Base 50)    
Moisture  
Dew Point 70 °F    
Average Humidity 87    
Maximum Humidity 100    
Minimum Humidity 74    
Precipitation  
Precipitation 0.04 in 0.07 in 0.40 in (2016)
Month to date precipitation 0.31 0.39  
Year to date precipitation 0.31 0.39  
Snow  
Snow 0.00 in - - ()
Month to date snowfall 0.0  
Since 1 July snowfall 0.0  
Snow Depth 0.00 in    
Sea Level Pressure  
Sea Level Pressure 30.06 in    
Wind  
Wind Speed 7 mph (NNW)    
Max Wind Speed 23 mph    
Max Gust Speed 34 mph    
Visibility 10 miles    
Events Rain    
T = Trace of Precipitation, MM = Missing Value Source: NWS Daily Summary

Daily Weather History Graph

Daily Weather History Graph

Search for Another Location

Airport or City:

Trip Planner

Search our weather history database for the weather conditions in past years. The results will help you decide how hot, cold, wet, or windy it might be!

Date:

Astronomy

Jan. 06, 2014 Rise Set
Actual Time 7:09 AM EST 5:50 PM EST
Civil Twilight 6:45 AM EST 6:15 PM EST
Nautical Twilight 6:16 AM EST 6:43 PM EST
Astronomical Twilight 5:49 AM EST 7:11 PM EST
Moon 11:03 AM EST (1/6) 11:39 PM EST (1/6)
Length of Visible Light 11h 30m
Length of Day
10h 40m
Waxing Crescent, 34% of the Moon is Illuminated
Jan 6
Waxing Crescent
Jan 7
First Quarter
Jan 15
Full
Jan 24
Last Quarter
Jan 30
New

Hourly Weather History & Observations

Time (EST) Temp. Heat Index Dew Point Humidity Pressure Visibility Wind Dir Wind Speed Gust Speed Precip Events Conditions
12:53 AM 71.1 °F - 70.0 °F 96% 30.01 in 10.0 mi Calm Calm - N/A   Clear
1:53 AM 71.1 °F - 70.0 °F 96% 30.00 in 10.0 mi Calm Calm - N/A   Clear
2:53 AM 72.0 °F - 72.0 °F 100% 30.00 in 10.0 mi Calm Calm - N/A   Clear
3:53 AM 72.0 °F - 72.0 °F 100% 30.00 in 8.0 mi Calm Calm - N/A   Clear
4:53 AM 71.1 °F - 70.0 °F 96% 30.00 in 7.0 mi Calm Calm - N/A   Clear
5:53 AM 71.1 °F - 71.1 °F 100% 30.00 in 9.0 mi Calm Calm - N/A   Clear
6:53 AM 71.1 °F - 71.1 °F 100% 30.02 in 7.0 mi Calm Calm - N/A   Scattered Clouds
7:53 AM 72.0 °F - 72.0 °F 100% 30.04 in 9.0 mi Calm Calm - N/A   Overcast
8:53 AM 75.9 °F - 75.0 °F 97% 30.06 in 10.0 mi Calm Calm - N/A   Partly Cloudy
9:53 AM 79.0 °F - 75.0 °F 88% 30.07 in 10.0 mi Calm Calm - N/A   Clear
10:53 AM 80.1 °F 84.5 °F 73.9 °F 81% 30.06 in 10.0 mi SE 5.8 mph - N/A   Clear
11:53 AM 81.0 °F 86.7 °F 75.0 °F 82% 30.04 in 10.0 mi South 3.5 mph - N/A   Clear
12:53 PM 82.0 °F 87.9 °F 73.9 °F 76% 30.01 in 10.0 mi Variable 3.5 mph - N/A   Clear
1:53 PM 82.9 °F 88.8 °F 73.0 °F 72% 30.00 in 10.0 mi Calm Calm - N/A   Clear
2:53 PM 81.0 °F 85.8 °F 73.0 °F 77% 29.99 in 10.0 mi Variable 3.5 mph - N/A   Partly Cloudy
3:53 PM 77.0 °F - 73.9 °F 90% 30.00 in 10.0 mi NNW 5.8 mph - N/A   Mostly Cloudy
4:53 PM 77.0 °F - 73.9 °F 90% 30.01 in 10.0 mi NNW 6.9 mph - N/A   Scattered Clouds
5:53 PM 73.9 °F - 72.0 °F 93% 30.03 in 10.0 mi NNW 9.2 mph - N/A   Scattered Clouds
6:44 PM 70.0 °F - 68.0 °F 93% 30.06 in 10.0 mi NNW 17.3 mph 26.5 mph N/A   Mostly Cloudy
6:51 PM 69.8 °F - 66.2 °F 88% 30.06 in 10.0 mi NNW 17.3 mph 25.3 mph N/A   Mostly Cloudy
6:53 PM 70.0 °F - 66.9 °F 90% 30.06 in 10.0 mi NNW 19.6 mph 25.3 mph N/A   Mostly Cloudy
7:06 PM 70.0 °F - 66.0 °F 87% 30.06 in 10.0 mi NNW 19.6 mph 28.8 mph N/A   Scattered Clouds
7:53 PM 69.1 °F - 66.0 °F 90% 30.09 in 10.0 mi NNW 19.6 mph 31.1 mph N/A   Mostly Cloudy
8:22 PM 69.1 °F - 64.9 °F 87% 30.10 in 10.0 mi NNW 20.7 mph 27.6 mph N/A   Overcast
8:53 PM 69.1 °F - 64.9 °F 87% 30.12 in 10.0 mi NNW 17.3 mph 26.5 mph N/A   Overcast
9:19 PM 68.0 °F - 62.1 °F 81% 30.13 in 10.0 mi NNW 20.7 mph 33.4 mph N/A   Overcast
9:53 PM 68.0 °F - 61.0 °F 78% 30.15 in 10.0 mi North 19.6 mph 29.9 mph N/A   Overcast
10:31 PM 62.1 °F - 55.9 °F 80% 30.16 in 10.0 mi NNW 18.4 mph 31.1 mph 0.04 in Rain Light Rain
10:53 PM 61.0 °F - - N/A% 30.17 in 10.0 mi North 21.9 mph 27.6 mph 0.04 in   Scattered Clouds
11:53 PM 61.0 °F - - N/A% 30.16 in 10.0 mi North 20.7 mph 29.9 mph N/A   Overcast